Location: Caronte
(48.8667°N, 2.4000°E)
Time: 22:39:01
(UTC+00:00)

Daily predictions for brighter satellites

Satellite Brightness Start Highest point End
(mag) Time Altitude Azimuth Time Altitude Azimuth Time Altitude Azimuth
BREEZE-M DEB (TANK) 3.3 19:08:51 10° SW 19:12:05 50° SE 19:21:30 10° ENE
CZ-4C R/B 2.1 19:08:49 10° SSW 19:13:44 73° SE 19:19:44 10° NE
SL-08 RB Rocket 4.4 19:09:24 10° S 19:14:01 61° W 19:18:38 10° NNW
ATLAS 5 CENTAUR R/B 0.8 19:14:56 10° NW 19:16:55 45° NE 19:18:53 10° ESE
SL-16 R/B 4.5 19:15:36 10° N 19:17:15 11° NNE 19:18:54 10° NE
Cosmos 1300 2.7 19:14:45 10° S 19:18:33 87° W 19:22:23 10° N
ARGOS 4.4 19:15:04 10° S 19:20:12 44° W 19:25:21 10° NNW
MetOp-A 4.2 19:17:47 10° SSE 19:23:09 88° ENE 19:28:33 10° NNW
Cosmos 405 4.1 19:20:48 10° SSE 19:23:38 24° E 19:26:30 10° NE
COSMOS 2428 3.4 19:19:27 10° NNW 19:24:54 41° NE 19:30:18 10° ESE
Cosmos 1606 Rocket 3.6 19:21:36 10° S 19:25:54 58° E 19:30:11 10° NNE
Cosmos 1184 Rocket 4.0 19:23:27 10° NNW 19:26:32 44° W 19:29:36 10° S
CSL-04 Rocket 4.4 19:21:44 10° S 19:26:56 57° WSW 19:32:09 10° NNW
Cosmos 2098 Rocket 4.5 19:21:47 10° N 19:28:30 57° ENE 19:35:47 10° SSE
Cosmos 2360 Rocket 2.4 19:23:15 10° NNW 19:28:56 76° WSW 19:34:33 10° SSE
SPOT 3 Rocket 4.4 19:25:29 10° SE 19:30:05 33° ENE 19:34:42 10° N
CZ-2C R/B 3.4 19:26:51 10° N 19:31:56 58° WNW 19:37:02 10° SSW
Cosmos 2333 4.3 19:26:33 10° NNW 19:32:22 71° ENE 19:38:05 10° SE
Cosmos 482 Debris 3.3 19:30:45 10° SW 19:33:27 43° SSE 19:35:22 11° E
Cosmos 1408 2.9 19:30:03 10° N 19:33:29 44° ENE 19:36:55 10° SSE
NOSS 3-4 (A) 3.4 19:27:55 10° SSW 19:33:42 66° SE 19:39:56 10° NE
NOSS 3-4 (C) 3.4 19:28:03 10° SSW 19:33:49 65° SE 19:40:03 10° NE
Cosmos 1833 4.2 19:28:35 10° SSW 19:34:07 64° ESE 19:39:44 10° NNE
SL-27 R/B 2.9 19:31:03 10° SSW 19:34:33 65° WNW 19:38:00 10° NNE
BREEZE-M DEB (TANK) 1.7 19:32:58 10° W 19:35:52 74° N 19:37:59 11° E
Cosmos 1726 Rocket 3.6 19:32:54 10° S 19:37:13 60° E 19:41:31 10° NNE
Cosmos 1689 Rocket 4.3 19:35:25 10° N 19:37:58 29° WNW 19:40:29 10° SW
Lacrosse 5 rocket 2.1 19:38:03 10° WSW 19:42:02 56° NNW 19:46:17 10° NE
SL-16 R/B 4.1 19:38:03 10° NW 19:42:52 29° WSW 19:47:39 10° SSW
Cosmos 1269 Rocket 4.0 19:39:17 10° SSW 19:44:35 84° ESE 19:49:57 10° NNE
OBJECT-B 1.1 19:43:23 10° S 19:46:34 68° WSW 19:49:50 10° NNW
SME Rocket 3.6 19:43:07 10° N 19:46:50 60° WNW 19:51:12 10° SSW
USA 186 3.0 19:43:48 10° S 19:46:54 41° W 19:49:57 10° NNW
Cosmos 2219 Rocket 2.3 19:41:28 10° NNW 19:47:10 65° ENE 19:52:17 13° SE
ATLAS 2AS CENTAUR R/B 3.1 19:39:43 10° SSW 19:47:25 59° ESE 19:55:01 10° NE
Cosmos 1302 Rocket 4.5 19:42:45 10° NNW 19:48:00 64° WSW 19:53:12 10° S
Ariane Rocket 3.0 19:43:26 10° SSE 19:48:29 82° ENE 19:53:34 10° NNW
MOS 1 4.3 19:44:20 10° SSE 19:50:00 86° ENE 19:55:41 10° NNW
IRS-1A Rocket 4.3 19:45:34 10° SSE 19:51:08 89° E 19:56:51 10° NNW
Cosmos 2228 3.4 19:46:59 10° SSW 19:51:19 67° W 19:55:38 10° N
Cosmos 1455 2.4 19:49:54 10° SSE 19:53:29 46° E 19:57:06 10° NNE
SJ-6B 3.3 19:50:18 10° S 19:53:57 56° W 19:57:39 10° NNW
Meteor 2-19 Rocket 4.5 19:51:11 10° N 19:57:22 71° ENE 20:03:30 10° SSE
ERS-2 3.9 19:54:17 10° N 19:57:39 35° WNW 20:00:59 10° SW
Cosmos 2058 Rocket 3.0 19:53:38 10° S 19:57:55 60° E 20:02:14 10° NNE
Cosmos 1092 Rocket 4.0 19:54:05 10° N 20:00:25 86° E 20:06:38 10° S
Cosmos 405 Rocket 3.6 19:57:10 10° N 20:00:54 34° ENE 20:03:01 20° ESE
ATLAS 5 CENTAUR R/B 3.2 19:57:18 10° WSW 20:01:08 35° NW 20:05:29 10° NNE
Exosat Rocket 4.0 19:57:31 10° NNW 20:04:35 70° ENE 20:08:46 17° SE
Cosmos 1953 Rocket 4.0 20:00:24 10° NNW 20:04:44 62° W 20:09:00 10° S
Terra 3.8 20:02:40 11° E 20:04:50 15° NE 20:07:27 10° NNE
NOSS 7 (H) 4.1 20:02:01 10° SSW 20:05:24 62° SE 20:08:19 10° NE
Resurs 01 Rocket 1.7 20:03:37 15° SSE 20:07:14 65° ENE 20:11:40 10° N
Cosmos 2237 Rocket 3.0 20:05:31 10° NNW 20:10:44 36° NE 20:14:10 19° ESE
Cosmos 1992 Rocket 4.0 20:07:37 10° NNW 20:12:52 88° WSW 20:17:03 16° SSE
Cosmos 1818 4.0 20:10:29 10° S 20:15:24 37° ESE 20:20:24 10° NE
Cosmos 1812 Rocket 4.5 20:15:15 23° ESE 20:16:46 29° E 20:20:37 10° NNE
CZ-2C R/B 4.1 20:14:30 10° NNE 20:18:44 40° E 20:21:14 21° SSE
NOSS 7 (E) 4.4 20:16:43 10° SSW 20:20:27 54° SE 20:23:33 10° NE
Cosmos 614 Rocket 4.5 20:17:22 14° SSE 20:21:15 37° ESE 20:25:56 10° NE
Orbus 7S? 3.1 20:20:25 10° SW 20:23:14 63° SE 20:28:32 10° ENE
COSMOS 2487 2.6 20:20:07 10° SSW 20:23:30 69° WNW 20:26:55 10° NNE
Resurs 1-3 4.3 20:19:15 10° S 20:23:33 54° W 20:27:53 10° NNW
Cosmos 2058 2.9 20:19:32 10° N 20:23:45 84° W 20:26:49 18° S
Cosmos 1076 Rocket 3.7 20:19:44 10° N 20:24:02 54° ENE 20:26:06 28° SE
SL-8 R/B 3.8 20:20:48 10° W 20:25:36 67° SSW 20:28:05 28° ESE
RESURS DK-1 2.4 20:21:44 10° S 20:25:43 52° ESE 20:29:47 10° NE
BREEZE-M DEB (TANK) 4.4 20:25:03 10° SW 20:26:13 12° SSW 20:27:12 11° S
Cosmos 2151 3.9 20:22:31 10° N 20:26:27 33° ENE 20:27:42 27° ESE
NOSS 0 Rocket 4.0 20:20:37 10° NNW 20:26:50 68° ENE 20:30:38 25° SE
Cosmos 1892 4.4 20:23:29 10° NNW 20:26:52 32° W 20:30:14 10° SSW
Cosmos 1633 3.5 20:23:55 10° N 20:27:09 29° ENE 20:27:40 28° E
Cosmos 2227 Rocket 3.7 20:29:01 18° E 20:29:01 18° E 20:32:02 10° ENE
Cosmos 2333 Rocket 2.7 20:23:33 10° NW 20:29:13 57° WSW 20:33:50 15° S
IRIDIUM 103 4.4 20:25:58 20° SSE 20:29:30 56° E 20:34:36 10° NNE
Cosmos 909 Rocket 4.1 20:23:31 10° SSW 20:29:39 53° ESE 20:35:51 10° NE
Cosmos 407 Rocket 4.4 20:30:56 25° ESE 20:31:21 26° E 20:35:32 10° NE
USA 215 3.3 20:27:34 23° SE 20:31:58 79° SW 20:38:33 10° WNW
ATLAS 3B R/B 2.8 20:25:09 10° NW 20:32:11 87° SW 20:36:56 24° SE
Meteor 2-10 Rocket 4.4 20:27:11 10° SSW 20:32:17 53° WNW 20:37:37 10° N
CARTOSAT-1 4.3 20:31:16 29° ESE 20:32:41 37° ENE 20:36:41 10° N
Cosmos 2219 4.3 20:35:30 23° E 20:35:30 23° E 20:39:43 10° NE
Cosmos 2297 Rocket 3.1 20:35:35 26° ESE 20:35:56 26° ESE 20:40:31 10° NE
Landsat 7 3.8 20:33:20 23° SSE 20:36:22 90° WSW 20:41:11 10° NNW
ERS-1 Rocket 3.7 20:35:03 27° ESE 20:36:58 37° ENE 20:41:34 10° N
MetOp-B 4.1 20:34:17 22° SSE 20:37:51 86° ENE 20:43:15 10° NNW
Cosmos 2279 Rocket 3.9 20:32:56 11° S 20:38:52 70° E 20:45:03 10° NNE
Cosmos 1809 Rocket 4.4 20:34:03 10° N 20:40:08 70° ENE 20:43:44 26° SSE
Meteor 2-1 Rocket 4.3 20:36:00 10° S 20:41:49 87° W 20:47:47 10° NNE
Cosmos 1825 3.3 20:41:42 10° NNW 20:45:17 42° W 20:47:52 17° SSW
Cosmos 1356 3.4 20:43:21 10° NNW 20:46:48 79° W 20:47:39 48° S
IRIDIUM 106 4.2 20:44:15 21° S 20:47:45 79° E 20:53:00 10° N
BREEZE-M DEB (TANK) 4.1 20:33:53 10° W 20:48:12 86° N 20:50:34 28° E
IGS 5A 4.1 20:50:50 23° SSW 20:53:12 52° W 20:57:17 10° NNW
Spot 2 Rocket 3.4 20:56:25 36° SSE 20:58:32 81° ENE 21:03:38 10° NNW
Genesis I 4.4 20:54:54 10° NNW 20:58:34 33° NE 20:59:26 30° ENE
Cosmos 192 4.3 20:54:41 10° NNW 20:59:42 90° ESE 21:01:25 42° SSE
Cosmos 1140 Rocket 3.9 21:01:06 39° ESE 21:01:18 39° ESE 21:06:03 10° NE
Meteor 2-3 Rocket 3.8 20:56:07 10° N 21:01:53 63° ENE 21:03:55 39° SE
ARIANE 5 R/B 2.5 21:00:43 46° SSE 21:02:01 84° ENE 21:06:26 10° NNW
CZ-4C R/B 4.0 20:58:00 10° W 21:02:51 33° NNW 21:08:39 10° NE
Cosmos 2266 Rocket 4.0 20:56:42 10° N 21:03:06 68° ENE 21:05:48 36° SSE
SL-16 R/B 3.2 20:58:01 10° NNW 21:03:14 35° NE 21:05:17 27° E
Meteor 2-14 Rocket 4.3 20:57:16 10° N 21:03:22 84° E 21:06:17 33° SSE
SPOT 1/Viking Rocket 3.6 21:00:48 30° S 21:03:25 75° WSW 21:08:40 10° NNW
Cosmos 1980 3.6 20:59:57 10° NNW 21:05:41 86° ENE 21:07:47 41° SSE
Cosmos 2344 3.5 21:00:02 10° SW 21:07:29 87° NW 21:15:36 10° NE
Cosmos 389 Rocket 2.7 21:08:15 51° SW 21:08:56 67° WNW 21:12:29 10° N
COSMOS 2428 3.7 21:03:52 10° NW 21:09:10 40° WSW 21:12:29 21° SSW
Cosmos 2251 Rocket 3.8 21:04:43 10° SSW 21:10:03 68° WNW 21:15:25 10° NNE
BREEZE-M DEB (TANK) 4.1 21:07:36 10° SW 21:08:30 16° SW 21:08:30 16° SW
SeaSat 1 4.4 21:10:05 10° ENE 21:11:18 15° ENE 21:11:18 15° ENE
Cosmos 1655 Rocket 4.0 21:14:41 10° N 21:21:01 81° W 21:23:50 35° S
Meteor 2-21 Rocket 4.3 21:15:13 10° N 21:21:18 90° E 21:23:34 41° S
Lacrosse 5 rocket 3.3 21:18:12 10° WNW 21:21:53 28° N 21:25:43 10° NE
Cosmos 1190 Rocket 4.1 21:22:31 52° ESE 21:22:41 52° ESE 21:27:45 10° NNE
SPOT 5 2.6 21:22:12 65° SSE 21:22:52 84° ENE 21:27:35 10° NNW
USA 245 4.2 21:22:23 36° SW 21:23:26 44° W 21:26:54 10° NNW
Cosmos 44 3.7 21:18:32 10° SW 21:23:40 70° NW 21:29:04 10° NE
Cosmos 2219 Rocket 4.0 21:26:14 10° NW 21:30:38 23° WSW 21:34:01 14° SW
Cosmos 1869 4.3 21:33:45 37° NE 21:33:45 37° NE 21:36:27 10° NNE
Meteor 2-16 Rocket 4.4 21:30:05 10° N 21:36:17 84° W 21:38:14 47° S
ATLAS 2AS CENTAUR R/B 3.9 21:31:03 10° WSW 21:38:42 50° NW 21:46:09 10° NE
Cosmos-2242 3.0 21:38:49 71° WSW 21:39:08 75° W 21:43:28 10° N
H-2A R/B 3.8 21:36:25 10° NNE 21:39:56 57° NE 21:39:56 57° NE
Terra 1.6 21:41:32 77° SSE 21:41:54 89° WSW 21:46:42 10° NNW
Cosmos 1763 Rocket 4.1 21:37:14 10° N 21:42:02 39° ENE 21:42:27 38° ENE
BREEZE M DEB (TANK) 3.0 21:38:05 10° WSW 21:42:53 47° WSW 21:42:53 47° WSW
Resurs 01 Rocket 4.2 21:41:27 10° SW 21:44:10 16° W 21:46:54 10° NW
Cosmos 2237 Rocket 2.8 21:49:34 10° NW 21:54:56 45° WSW 21:56:00 40° SW
Okean 3 Rocket 3.7 21:50:35 10° NNW 21:55:00 75° WNW 21:55:00 75° WNW
Cosmos 1818 4.5 21:53:37 10° WSW 21:58:53 48° NW 22:04:13 10° NNE
Cosmos 2221 3.8 22:05:40 31° NE 22:05:40 31° NE 22:08:10 10° NNE
Meteor 1-4 Rocket 4.4 22:06:48 26° N 22:06:48 26° N 22:08:27 10° N
NOSS 3-1 (C) 4.3 21:59:00 10° NW 22:06:05 58° NE 22:09:24 36° ESE
Cosmos 1766 Rocket 4.0 22:01:52 10° NNW 22:05:45 55° WNW 22:05:45 55° WNW
Cosmos 540 Rocket 4.4 22:02:36 10° N 22:07:21 36° ENE 22:07:29 36° ENE
Cosmos 2082 4.1 22:08:37 47° ENE 22:08:37 47° ENE 22:13:01 10° NE
ALOS 2 4.4 22:08:22 22° NE 22:08:22 22° NE 22:11:16 10° NNE
Cosmos 2227 Rocket 2.2 22:10:45 63° SW 22:11:42 82° WNW 22:17:24 10° NNE
CRYOSAT 2 4.4 22:12:30 76° WNW 22:12:30 76° WNW 22:17:17 10° N
Cosmos 407 Rocket 4.2 22:11:03 32° WSW 22:13:02 50° WNW 22:18:05 10° NNE
Cosmos 1862 4.5 22:09:48 10° N 22:12:26 39° N 22:12:26 39° N
Cosmos 2263 Rocket 4.1 22:16:27 16° ENE 22:16:27 16° ENE 22:18:10 10° NE
USA 215 4.4 22:14:54 26° SW 22:15:39 26° SW 22:21:00 10° WNW
ERS-1 Rocket 4.1 22:15:03 32° WSW 22:15:47 34° W 22:20:21 10° NNW
Cosmos 2219 3.5 22:17:19 43° WSW 22:19:03 64° WNW 22:24:40 10° NNE
Cosmos 2297 Rocket 2.6 22:17:17 34° WSW 22:19:35 59° WNW 22:25:12 10° NNE
ATLAS 3B R/B 4.3 22:16:55 10° WNW 22:22:06 22° WSW 22:24:12 19° SW
Meteor 2-15 4.3 22:21:37 71° SSW 22:22:19 84° W 22:28:25 10° N
Cosmos 1954 Rocket 4.0 22:27:26 75° NW 22:27:26 75° NW 22:32:26 10° NNE
Aureole 1 Rocket 4.3 22:47:57 44° ENE 22:47:57 44° ENE 22:51:30 10° NNE
SL-16 R/B 2.8 22:42:05 10° NW 22:47:09 47° W 22:47:09 47° W
Cosmos 1745 Rocket 3.9 22:43:59 10° N 22:50:23 85° E 22:50:30 84° ESE
SeaSat 1 2.8 22:46:43 10° NNE 22:51:05 63° NNW 22:51:05 63° NNW
Cosmos 44 Rocket 4.4 22:55:45 39° NE 22:55:45 39° NE 22:59:02 10° NE
COSMOS 2455 2.8 22:55:28 83° NW 22:55:28 83° NW 23:01:28 10° NE
Cosmos 1709 Rocket 4.2 22:50:15 10° N 22:56:26 58° ENE 22:56:26 58° ENE
Lacrosse 5 rocket 3.0 22:57:59 10° NW 23:01:54 34° NNE 23:01:54 34° NNE
S3M 3.9 23:02:52 86° E 23:02:52 86° E 23:09:20 10° N
Cosmos 841 Rocket 3.9 23:05:05 10° NNW 23:09:17 58° NNW 23:09:17 58° NNW
USA 229 DEB 3.8 23:04:53 10° NW 23:12:11 82° NE 23:13:18 67° ESE
USA 229 3.8 23:04:59 10° NW 23:12:17 81° NE 23:13:25 67° ESE
Cosmos 1814 Rocket 4.4 23:08:58 10° NNW 23:13:26 61° N 23:13:26 61° N
Cosmos 921 Rocket 4.4 23:12:16 10° NNW 23:15:01 37° NNW 23:15:01 37° NNW
Cosmos 1943 3.4 23:13:37 10° NNW 23:18:33 68° N 23:18:33 68° N
Terra 4.3 23:20:25 12° W 23:20:25 12° W 23:22:17 10° WNW
USA 281 3.4 23:28:00 55° E 23:28:54 61° ENE 23:35:23 10° NNW
NOSS 3-1 (A) 3.9 23:22:35 10° NW 23:30:00 90° SW 23:31:15 68° SE
ALOS 2 4.3 23:45:45 28° NW 23:45:45 28° NW 23:48:08 10° NNW
Nimbus 7 Rocket 4.4 23:44:02 10° NNE 23:49:29 76° N 23:49:29 76° N
